Date,TemperatureHighF,TemperatureAvgF,TemperatureLowF,DewpointHighF,DewpointAvgF,DewpointLowF,HumidityHigh,HumidityAvg,HumidityLow,PressureMaxIn,PressureMinIn,WindSpeedMaxMPH,WindSpeedAvgMPH,GustSpeedMaxMPH,PrecipitationSumIn
2013-12-1,80.4,67.5,54.7,42.7,28.7,17.2,55,28,10,30.43,30.24,8,2,14,0.06
2013-12-2,81.3,64.5,54.9,38.0,29.4,17.7,50,32,10,30.41,29.99,8,2,10,0.00
2013-12-3,84.9,70.6,54.7,49.1,28.7,19.1,61,26,10,30.25,29.63,4,2,14,0.00
2013-12-4,98.4,74.5,56.8,39.4,29.7,19.3,52,23,10,30.01,29.24,8,3,13,0.00
2013-12-5,81.9,73.2,57.2,37.9,25.4,13.5,27,18,10,29.93,29.41,24,8,42,0.25
2013-12-6,79.3,65.0,53.4,21.7,16.9,12.3,22,16,10,30.23,29.93,12,4,17,0.00
2013-12-7,86.4,67.9,51.4,32.4,23.5,15.1,48,22,10,30.29,30.03,9,3,14,0.00
2013-12-8,92.5,68.9,53.1,38.6,30.3,19.9,53,31,10,30.25,29.45,8,2,14,0.00
2013-12-9,101.5,81.2,59.9,39.5,28.9,21.5,37,16,11,30.04,28.75,8,3,11,0.00
2013-12-10,97.2,85.5,74.5,40.7,28.2,20.3,23,13,10,29.86,28.53,16,7,30,0.00
2013-12-11,88.5,76.6,65.3,50.5,33.8,19.9,50,24,10,29.92,28.95,7,3,12,0.00
2013-12-12,86.9,75.3,63.7,48.9,32.6,19.9,53,25,10,30.02,29.18,8,3,16,0.00
2013-12-13,92.3,76.1,59.9,47.2,32.7,19.9,51,24,10,30.06,29.26,10,3,18,0.00
2013-12-14,83.5,72.9,64.9,54.1,35.6,20.3,61,29,10,30.08,29.83,13,4,24,0.00
2013-12-15,85.6,73.5,60.8,45.4,31.8,19.2,50,25,10,30.22,29.34,7,2,14,0.00
2013-12-16,85.5,75.2,64.4,42.9,30.9,19.2,43,22,10,30.25,29.45,10,3,17,0.00
2013-12-17,89.8,74.5,58.6,48.7,30.3,17.8,52,24,10,30.33,29.39,12,3,18,0.00
2013-12-18,88.5,75.4,60.8,44.6,28.8,19.1,46,21,10,30.38,30.16,8,2,13,0.00
2013-12-19,89.8,75.4,59.2,41.9,29.0,19.5,50,22,10,30.36,30.10,9,3,16,0.00
2013-12-20,112.3,84.1,61.3,46.2,33.2,19.5,46,19,10,30.21,28.71,7,2,16,0.00
2013-12-21,83.3,77.6,71.6,42.7,32.8,21.4,35,20,12,30.18,29.48,10,3,17,0.00
2013-12-22,102.4,82.8,70.7,50.2,36.5,20.2,47,23,10,30.17,28.71,9,3,17,0.00
2013-12-23,96.8,84.2,69.3,47.8,31.1,24.7,31,16,10,29.99,28.95,17,4,21,0.00
2013-12-24,73.6,70.6,66.9,48.0,37.5,24.2,49,32,16,30.22,29.96,8,2,17,0.13
2013-12-25,74.7,70.0,67.1,46.0,40.5,33.2,44,35,23,30.21,30.03,8,2,16,0.14
2013-12-26,83.3,73.6,68.2,49.8,34.7,19.1,51,28,10,30.04,29.48,11,4,18,0.07
2013-12-27,85.6,74.6,63.9,48.1,32.6,19.7,53,25,10,30.07,29.34,7,2,14,0.00
2013-12-28,90.3,77.2,64.2,42.9,31.6,19.1,43,21,10,30.07,28.97,11,3,16,0.00
2013-12-29,76.3,70.9,64.6,48.2,31.9,15.3,50,26,11,30.16,29.67,16,4,24,0.00
2013-12-30,85.3,71.9,57.2,39.2,24.8,17.2,44,20,10,30.17,29.73,8,3,16,0.00
2013-12-31,90.3,73.4,55.4,41.5,29.2,13.2,50,23,10,30.16,29.54,9,2,21,0.00